Hinckley, MN

8:50 PM CST on December 15, 2019 (GMT -0600)
Hinckley

Weather History for K04W - October, 2019

Change the Weather History Date:

Saturday, October 5, 2019

  Actual Average (KJMR) Record (KJMR)
Temperature  
Mean Temperature 48 °F -  
Max Temperature 53 °F 62 °F 87 °F (1947)
Min Temperature 42 °F 34 °F 20 °F (1935)
Degree Days  
Heating Degree Days 18    
Moisture  
Dew Point 46 °F    
Average Humidity 95    
Maximum Humidity 100    
Minimum Humidity 81    
Precipitation  
Precipitation 0.77 in - - ()
Sea Level Pressure  
Sea Level Pressure 29.85 in    
Wind  
Wind Speed 5 mph (SSE)    
Max Wind Speed 20 mph    
Max Gust Speed 31 mph    
Visibility 7 miles    
Events Rain    
Averages and records for this station are not official NWS values.
T = Trace of Precipitation, MM = Missing Value Source: NWS Daily Summary

Daily Weather History Graph

Daily Weather History Graph

Search for Another Location

Airport or City:

Astronomy

Oct. 05, 2019 Rise Set
Actual Time 7:14 AM CDT 6:44 PM CDT
Civil Twilight 6:45 AM CDT 7:14 PM CDT
Nautical Twilight 6:10 AM CDT 7:48 PM CDT
Astronomical Twilight 5:35 AM CDT 8:23 PM CDT
Moon 2:59 PM CDT (10/5) 11:50 PM CDT (10/5)
Length of Visible Light 12h 29m
Length of Day
11h 29m
Waxing Crescent, 50% of the Moon is Illuminated
Oct 5
Waxing Crescent
Oct 13
Full
Oct 21
Last Quarter
Oct 27
New
Nov 4
First Quarter

Hourly Weather History & Observations

Time (CDT) Temp. Windchill Dew Point Humidity Pressure Visibility Wind Dir Wind Speed Gust Speed Precip Events Conditions
12:15 AM 44.6 °F - 39.2 °F 81% 30.22 in 10.0 mi Calm Calm - N/A   Overcast
12:16 AM 44.6 °F - 39.2 °F 81% 30.22 in 10.0 mi Calm Calm - N/A   Overcast
12:35 AM 44.6 °F - 39.2 °F 81% 30.20 in 10.0 mi Calm Calm - N/A   Overcast
12:39 AM 44.6 °F - 41.0 °F 87% 30.19 in 10.0 mi Calm Calm - N/A   Overcast
12:57 AM 44.6 °F - 39.2 °F 81% 30.20 in 10.0 mi Calm Calm - N/A   Scattered Clouds
1:15 AM 42.8 °F - 41.0 °F 93% 30.19 in 10.0 mi Calm Calm - N/A   Scattered Clouds
1:35 AM 42.8 °F - 41.0 °F 93% 30.18 in 10.0 mi Calm Calm - N/A   Mostly Cloudy
1:36 AM 42.8 °F - 41.0 °F 93% 30.18 in 10.0 mi Calm Calm - N/A   Mostly Cloudy
1:55 AM 42.8 °F - 41.0 °F 93% 30.18 in 10.0 mi Calm Calm - N/A   Overcast
2:17 AM 42.8 °F - 41.0 °F 93% 30.16 in 7.0 mi Calm Calm - 0.02 in Rain Heavy Rain
2:36 AM 42.8 °F - 41.0 °F 93% 30.14 in 7.0 mi Calm Calm - 0.06 in Rain Rain
2:55 AM 42.8 °F 39.3 °F 42.8 °F 100% 30.12 in 5.0 mi ESE 5.8 mph - 0.11 in Rain Heavy Rain
2:56 AM 42.8 °F - 42.8 °F 100% 30.12 in 5.0 mi Calm Calm - 0.11 in Rain Rain
3:15 AM 42.8 °F - 42.8 °F 100% 30.10 in 7.0 mi Calm Calm - 0.02 in Rain Rain
3:19 AM 42.8 °F 37.5 °F 42.8 °F 100% 30.09 in 7.0 mi ESE 9.2 mph - 0.03 in Rain Rain
3:38 AM 42.8 °F - 42.8 °F 100% 30.08 in 7.0 mi Calm Calm - 0.07 in Rain Rain
3:55 AM 42.8 °F 37.5 °F 42.8 °F 100% 30.06 in 7.0 mi ESE 9.2 mph - 0.10 in Rain Rain
4:15 AM 44.6 °F 42.2 °F 42.8 °F 93% 30.05 in 10.0 mi ESE 4.6 mph 16.1 mph 0.01 in Rain Light Rain
4:16 AM 44.6 °F 40.7 °F 42.8 °F 93% 30.05 in 10.0 mi ESE 6.9 mph - 0.01 in Rain Light Rain
4:35 AM 44.6 °F 41.4 °F 42.8 °F 93% 30.06 in 7.0 mi SE 5.8 mph 16.1 mph 0.02 in Rain Rain
4:36 AM 44.6 °F 42.2 °F 42.8 °F 93% 30.06 in 7.0 mi SE 4.6 mph - 0.02 in Rain Rain
4:58 AM 44.6 °F - 44.6 °F 100% 30.06 in 10.0 mi Calm Calm - 0.05 in Rain Light Rain
5:17 AM 44.6 °F - 44.6 °F 100% 30.08 in 10.0 mi Calm Calm - 0.02 in Rain Rain
5:36 AM 44.6 °F - 44.6 °F 100% 30.08 in 7.0 mi Calm Calm - 0.05 in Rain Rain
5:55 AM 44.6 °F - 44.6 °F 100% 30.06 in 7.0 mi Calm Calm - 0.09 in Rain Rain
6:15 AM 44.6 °F - 44.6 °F 100% 30.04 in 5.0 mi Calm Calm - 0.07 in Rain Heavy Rain
6:19 AM 44.6 °F - 44.6 °F 100% 30.03 in 4.0 mi Calm Calm - 0.08 in Rain Heavy Rain
6:37 AM 44.6 °F 39.7 °F 44.6 °F 100% 30.01 in 5.0 mi ESE 9.2 mph 16.1 mph 0.16 in Rain Rain
6:55 AM 44.6 °F 43.1 °F 44.6 °F 100% 29.99 in 7.0 mi ESE 3.5 mph - 0.20 in Rain Light Rain
7:15 AM 44.6 °F 39.7 °F 44.6 °F 100% 29.97 in 7.0 mi ESE 9.2 mph - 0.03 in Rain Rain
7:16 AM 44.6 °F 38.8 °F 44.6 °F 100% 29.97 in 7.0 mi ESE 11.5 mph - 0.03 in Rain Rain
7:35 AM 44.6 °F 39.7 °F 44.6 °F 100% 29.97 in 7.0 mi ESE 9.2 mph 20.7 mph 0.06 in Rain Rain
7:36 AM 44.6 °F 39.2 °F 44.6 °F 100% 29.97 in 7.0 mi SE 10.4 mph 20.7 mph 0.06 in Rain Rain
7:59 AM 44.6 °F 39.2 °F 44.6 °F 100% 29.97 in 5.0 mi SE 10.4 mph 18.4 mph 0.12 in Rain Rain
8:35 AM 44.6 °F 38.4 °F 44.6 °F 100% 29.93 in 5.0 mi ESE 12.7 mph 21.9 mph 0.04 in Rain Light Rain
8:36 AM 44.6 °F 39.7 °F 44.6 °F 100% 29.93 in 5.0 mi ESE 9.2 mph 21.9 mph 0.04 in Rain Light Rain
8:55 AM 44.6 °F 38.1 °F 44.6 °F 100% 29.92 in 7.0 mi SE 13.8 mph 20.7 mph 0.04 in   Overcast
8:56 AM 44.6 °F 38.4 °F 44.6 °F 100% 29.91 in 7.0 mi ESE 12.7 mph 20.7 mph 0.04 in   Overcast
9:15 AM 44.6 °F 40.2 °F 44.6 °F 100% 29.90 in 4.0 mi ESE 8.1 mph 19.6 mph N/A Rain Light Rain
9:37 AM 44.6 °F 38.8 °F 44.6 °F 100% 29.88 in 5.0 mi ESE 11.5 mph 19.6 mph N/A   Overcast
9:55 AM 44.6 °F 38.8 °F 44.6 °F 100% 29.86 in 10.0 mi ESE 11.5 mph 18.4 mph N/A   Overcast
10:15 AM 44.6 °F - 44.6 °F 100% 29.84 in 10.0 mi Calm Calm - N/A   Overcast
10:16 AM 44.6 °F - 44.6 °F 100% 29.84 in 10.0 mi Calm Calm - N/A   Overcast
10:35 AM 44.6 °F 38.8 °F 44.6 °F 100% 29.82 in 10.0 mi ESE 11.5 mph - N/A   Overcast
10:36 AM 44.6 °F 41.4 °F 44.6 °F 100% 29.83 in 10.0 mi ESE 5.8 mph - N/A   Overcast
10:59 AM 46.4 °F 42.4 °F 44.6 °F 93% 29.82 in 10.0 mi ESE 8.1 mph - N/A   Overcast
11:16 AM 46.4 °F - 44.6 °F 93% 29.81 in 2.0 mi Calm Calm - N/A   Light Drizzle
11:35 AM 46.4 °F 41.5 °F 46.4 °F 100% 29.79 in 1.8 mi ESE 10.4 mph 16.1 mph N/A   Light Drizzle
11:55 AM 46.4 °F - 46.4 °F 100% 29.78 in 2.0 mi Calm Calm - N/A   Light Drizzle
11:56 AM 46.4 °F 43.5 °F 46.4 °F 100% 29.78 in 2.0 mi SE 5.8 mph 17.3 mph N/A   Light Drizzle
12:18 PM 46.4 °F 42.4 °F 46.4 °F 100% 29.76 in 2.0 mi SE 8.1 mph - 0.01 in Rain Light Rain
12:36 PM 46.4 °F 41.9 °F 46.4 °F 100% 29.75 in 2.0 mi SE 9.2 mph - 0.01 in   Light Drizzle
12:55 PM 48.2 °F - 48.2 °F 100% 29.73 in 2.0 mi Calm Calm - 0.01 in   Overcast
1:15 PM 48.2 °F - 48.2 °F 100% 29.72 in 2.0 mi SE 8.1 mph - N/A   Overcast
1:16 PM 48.2 °F - 48.2 °F 100% 29.71 in 2.0 mi SE 9.2 mph - N/A   Overcast
1:38 PM 50.0 °F - 50.0 °F 100% 29.69 in 2.5 mi SSE 5.8 mph 16.1 mph 0.01 in   Light Drizzle
1:56 PM 50.0 °F - 50.0 °F 100% 29.68 in 3.0 mi SSE 4.6 mph 9.2 mph 0.01 in Rain Light Rain
2:16 PM 50.0 °F - 50.0 °F 100% 29.67 in 2.5 mi SSE 11.5 mph 16.1 mph N/A Rain Light Rain
2:35 PM 50.0 °F - 50.0 °F 100% 29.66 in 3.0 mi SSE 6.9 mph 18.4 mph N/A Rain Light Rain
2:36 PM 50.0 °F - 50.0 °F 100% 29.66 in 3.0 mi SSE 3.5 mph 18.4 mph 0.01 in Rain Light Rain
2:55 PM 50.0 °F - 50.0 °F 100% 29.64 in 4.0 mi SSE 12.7 mph 18.4 mph 0.01 in   Light Drizzle
2:59 PM 50.0 °F - 50.0 °F 100% 29.64 in 5.0 mi SSE 10.4 mph 18.4 mph 0.01 in   Overcast
3:16 PM 50.0 °F - 50.0 °F 100% 29.62 in 7.0 mi SSE 4.6 mph 12.7 mph N/A   Overcast
3:36 PM 51.8 °F - 50.0 °F 94% 29.63 in 10.0 mi South 6.9 mph 19.6 mph N/A   Overcast
3:55 PM 51.8 °F - 51.8 °F 100% 29.62 in 4.0 mi South 13.8 mph - 0.01 in   Light Drizzle
3:56 PM 51.8 °F - 51.8 °F 100% 29.62 in 4.0 mi South 12.7 mph - 0.01 in   Light Drizzle
4:18 PM 51.8 °F - 51.8 °F 100% 29.62 in 4.0 mi South 12.7 mph 18.4 mph N/A   Light Drizzle
4:36 PM 51.8 °F - 51.8 °F 100% 29.61 in 2.5 mi South 11.5 mph 18.4 mph 0.01 in Rain Rain
4:55 PM 51.8 °F - 51.8 °F 100% 29.61 in 3.0 mi SSW 10.4 mph - 0.02 in   Light Drizzle
4:56 PM 51.8 °F - 51.8 °F 100% 29.61 in 3.0 mi SSW 5.8 mph - 0.02 in   Drizzle
5:15 PM 51.8 °F - 51.8 °F 100% 29.60 in 10.0 mi South 9.2 mph 16.1 mph N/A   Overcast
5:38 PM 53.6 °F - 51.8 °F 94% 29.60 in 10.0 mi South 4.6 mph - N/A   Overcast
5:56 PM 53.6 °F - 53.6 °F 100% 29.61 in 10.0 mi SSW 5.8 mph - N/A   Overcast
6:16 PM 53.6 °F - 53.6 °F 100% 29.61 in 10.0 mi SSW 10.4 mph 17.3 mph N/A   Overcast
6:35 PM 53.6 °F - 51.8 °F 94% 29.61 in 10.0 mi SSW 6.9 mph 21.9 mph N/A   Overcast
6:36 PM 53.6 °F - 51.8 °F 94% 29.61 in 10.0 mi SSW 10.4 mph 21.9 mph N/A   Overcast
6:55 PM 53.6 °F - 51.8 °F 94% 29.62 in 10.0 mi SW 16.1 mph 27.6 mph N/A   Overcast
7:16 PM 51.8 °F - 50.0 °F 94% 29.62 in 10.0 mi SW 12.7 mph 19.6 mph N/A   Mostly Cloudy
7:36 PM 51.8 °F - 50.0 °F 94% 29.63 in 10.0 mi WSW 11.5 mph 21.9 mph N/A   Overcast
7:55 PM 51.8 °F - 50.0 °F 94% 29.64 in 10.0 mi WSW 13.8 mph - N/A   Overcast
7:56 PM 51.8 °F - 50.0 °F 94% 29.64 in 10.0 mi WSW 15.0 mph - N/A   Overcast
8:18 PM 51.8 °F - 50.0 °F 94% 29.65 in 7.0 mi West 13.8 mph 25.3 mph N/A Rain Light Rain
8:37 PM 50.0 °F - 46.4 °F 87% 29.66 in 10.0 mi West 18.4 mph 27.6 mph N/A   Overcast
9:15 PM 50.0 °F - 46.4 °F 87% 29.67 in 10.0 mi West 17.3 mph 26.5 mph N/A   Mostly Cloudy
9:16 PM 50.0 °F - 44.6 °F 82% 29.67 in 10.0 mi West 19.6 mph 27.6 mph N/A   Overcast
9:39 PM 48.2 °F - 44.6 °F 87% 29.69 in 10.0 mi West 17.3 mph 25.3 mph N/A   Overcast
9:56 PM 48.2 °F - 42.8 °F 82% 29.70 in 10.0 mi West 19.6 mph 31.1 mph N/A   Overcast
10:16 PM 48.2 °F - 42.8 °F 82% 29.71 in 10.0 mi West 15.0 mph 26.5 mph N/A   Overcast
10:35 PM 48.2 °F - 42.8 °F 82% 29.71 in 10.0 mi West 10.4 mph 18.4 mph N/A   Overcast
10:36 PM 48.2 °F - 42.8 °F 82% 29.71 in 10.0 mi West 11.5 mph 18.4 mph N/A   Overcast
10:55 PM 48.2 °F - 42.8 °F 82% 29.72 in 10.0 mi West 10.4 mph 18.4 mph N/A   Overcast
10:59 PM 48.2 °F - 42.8 °F 82% 29.72 in 10.0 mi West 9.2 mph - N/A   Overcast
11:16 PM 48.2 °F - 42.8 °F 82% 29.73 in 10.0 mi West 9.2 mph 16.1 mph N/A   Overcast
11:36 PM 48.2 °F - 42.8 °F 82% 29.73 in 10.0 mi Calm Calm - N/A   Overcast
11:55 PM 48.2 °F - 44.6 °F 87% 29.74 in 10.0 mi SW 11.5 mph - N/A   Overcast
11:56 PM 48.2 °F - 44.6 °F 87% 29.74 in 10.0 mi SW 11.5 mph - N/A   Overcast